FW2417 Weather Reports


Display with metric or nautical units.
time (UTC)temp
F
wind
direction
speed
MPH
gust
MPH
rain 1hr
in
rain 24hr
in
rain mn
in
humidity
%
barometer
mb
20260508073112 62 204 0.0 2.0 0.00 0.00 0.00 73 1013.1
20260508071617 61 203 0.0 2.0 0.00 0.00 0.00 77 1013.1
20260508070113 59 203 0.0 3.0 0.00 0.00 0.00 79 1013.0
20260508064613 59 208 0.0 4.0 0.00 0.00 0.00 79 1013.0
20260508063104 59 226 0.0 1.0 0.00 0.00 0.00 78 1012.8
20260508061609 59 188 0.0 1.0 0.00 0.00 0.00 79 1012.7
20260508060056 59 217 0.0 1.0 0.00 0.00 0.00 79 1012.5
20260508054635 59 236 0.0 2.0 0.00 0.00 0.00 79 1012.2
20260508053049 58 236 0.0 3.0 0.00 0.00 0.00 80 1012.1
20260508051547 58 247 0.0 1.0 0.00 0.00 0.00 80 1011.9
20260508050042 58 225 0.0 2.0 0.00 0.00 0.00 81 1011.4
20260508044514 58 238 0.0 2.0 0.00 0.00 0.00 82 1011.4
20260508043002 58 229 0.0 1.0 0.00 0.00 0.00 83 1011.5
20260508041617 58 200 0.0 2.0 0.00 0.00 0.00 82 1011.3
20260508040109 58 222 0.0 1.0 0.00 0.00 0.00 83 1011.5
20260508034606 58 195 0.0 2.0 0.00 0.00 0.00 82 1011.7
20260508033105 58 205 0.0 2.0 0.00 0.00 0.00 82 1011.8
20260508031605 58 198 0.0 3.0 0.00 0.00 0.00 81 1011.9
20260508030109 58 212 0.0 3.0 0.00 0.00 0.00 80 1012.0
20260508024549 59 217 0.0 2.0 0.00 0.00 0.00 80 1011.9
20260508023046 59 238 0.0 3.0 0.00 0.00 0.00 80 1011.9
20260508021543 59 212 0.0 4.0 0.00 0.00 0.00 80 1012.0
20260508020039 59 228 1.0 4.0 0.00 0.00 0.00 79 1012.0
20260508014539 59 210 0.0 3.0 0.00 0.00 0.00 78 1012.0
20260508013032 59 215 0.0 1.0 0.00 0.00 0.00 77 1012.2
20260508011533 59 207 0.0 1.0 0.00 0.00 0.00 76 1012.3
20260508010002 59 207 0.0 1.0 0.00 0.00 0.00 76 1012.4
20260508004506 59 210 0.0 2.0 0.00 0.00 0.00 76 1012.3
20260508003001 60 215 0.0 2.0 0.00 0.00 0.00 75 1012.3
20260508001619 60 214 0.0 1.0 0.00 0.00 0.00 75 1012.2
20260508000112 60 230 0.0 2.0 0.00 0.00 0.00 74 1012.4
20260507234611 60 218 0.0 2.0 0.00 0.00 0.00 75 1012.4
20260507233115 60 229 0.0 2.0 0.00 0.00 0.00 75 1012.3
20260507231609 60 217 0.0 3.0 0.00 0.00 0.00 75 1012.7
20260507224606 61 248 1.0 5.0 0.00 0.00 0.00 74 1012.9
20260507223100 61 219 0.0 3.0 0.00 0.00 0.00 73 1013.0
20260507221551 61 246 0.0 1.0 0.00 0.00 0.00 72 1013.1
20260507220049 62 238 0.0 5.0 0.00 0.00 0.00 71 1013.2
20260507214541 62 229 1.0 4.0 0.00 0.00 0.00 71 1013.2
20260507213037 62 239 0.0 3.0 0.00 0.00 0.00 69 1013.1
20260507211534 62 231 0.0 1.0 0.00 0.00 0.00 69 1012.9
20260507210006 62 230 0.0 1.0 0.00 0.00 0.00 68 1012.8
20260507204529 63 231 0.0 2.0 0.00 0.00 0.00 67 1012.5
20260507203030 63 249 0.0 3.0 0.00 0.00 0.00 65 1012.3
20260507201503 64 246 0.0 1.0 0.00 0.00 0.00 61 1012.3
20260507200113 65 207 0.0 3.0 0.00 0.00 0.00 59 1012.2
20260507194614 65 232 0.0 3.0 0.00 0.00 0.00 57 1012.0
20260507193133 66 219 0.0 7.0 0.00 0.00 0.00 56 1011.9
20260507191610 66 248 1.0 5.0 0.00 0.00 0.00 55 1011.7
20260507190100 67 259 1.0 9.0 0.00 0.00 0.00 53 1011.4
20260507184559 68 242 2.0 11.0 0.00 0.00 0.00 51 1011.1
20260507183102 68 232 1.0 8.0 0.00 0.00 0.00 50 1010.8
20260507181600 69 243 2.0 11.0 0.00 0.00 0.00 49 1010.8
20260507180059 70 96 1.0 9.0 0.00 0.00 0.00 47 1010.6
20260507174557 71 246 3.0 14.0 0.00 0.00 0.00 46 1010.5
20260507173120 71 221 3.0 10.0 0.00 0.00 0.00 46 1010.3
20260507171549 71 259 2.0 9.0 0.00 0.00 0.00 45 1010.1
20260507170010 72 259 3.0 14.0 0.00 0.00 0.00 45 1010.0
20260507164507 73 228 2.0 13.0 0.00 0.00 0.00 44 1009.9
20260507163117 73 13 2.0 13.0 0.00 0.00 0.00 43 1010.0
20260507161618 73 217 2.0 12.0 0.00 0.00 0.00 44 1010.0
20260507160120 73 249 5.0 11.0 0.00 0.00 0.00 43 1010.0
20260507154507 73 233 3.0 16.0 0.00 0.00 0.00 44 1009.9
20260507153014 73 287 5.0 16.0 0.00 0.00 0.00 45 1009.9
20260507151618 73 283 3.0 12.0 0.00 0.00 0.00 45 1010.0
20260507150114 73 280 4.0 14.0 0.00 0.00 0.00 45 1010.1
20260507144614 73 303 2.0 16.0 0.00 0.00 0.00 46 1010.2
20260507143008 72 230 2.0 11.0 0.00 0.00 0.00 47 1010.3
20260507141508 73 341 3.0 15.0 0.00 0.00 0.00 48 1010.4
20260507140114 73 242 2.0 10.0 0.00 0.00 0.00 49 1010.5
20260507134610 73 236 6.0 15.0 0.00 0.00 0.00 47 1010.7
20260507133108 73 210 3.0 11.0 0.00 0.00 0.00 47 1010.9
20260507131603 71 300 3.0 14.0 0.00 0.00 0.00 50 1010.9
20260507124606 73 330 2.0 17.0 0.00 0.00 0.00 49 1011.3
20260507123100 72 215 11.0 17.0 0.00 0.00 0.00 47 1011.3
20260507121601 72 250 8.0 14.0 0.00 0.00 0.00 48 1011.4
20260507120100 73 266 7.0 17.0 0.00 0.00 0.00 47 1011.4
20260507114559 72 233 4.0 16.0 0.00 0.00 0.00 48 1011.4
20260507113051 72 215 1.0 9.0 0.00 0.00 0.00 47 1011.6
20260507111559 72 204 2.0 10.0 0.00 0.00 0.00 45 1011.8
20260507110017 71 239 3.0 11.0 0.00 0.00 0.00 45 1011.8
20260507104516 71 246 3.0 7.0 0.00 0.00 0.00 48 1011.9
20260507103009 71 229 2.0 8.0 0.00 0.00 0.00 49 1012.0
20260507101512 70 248 0.0 12.0 0.00 0.00 0.00 50 1012.2
20260507100113 69 204 2.0 13.0 0.00 0.00 0.00 52 1012.3
20260507094614 68 231 1.0 12.0 0.00 0.00 0.00 52 1012.1
20260507093103 68 212 3.0 7.0 0.00 0.00 0.00 53 1012.2
20260507091606 68 203 4.0 8.0 0.00 0.00 0.00 51 1012.3
20260507090112 67 134 1.0 6.0 0.00 0.00 0.00 56 1012.3
20260507084601 66 240 1.0 5.0 0.00 0.00 0.00 60 1012.3
20260507083052 64 238 1.0 7.0 0.00 0.00 0.00 62 1012.3
20260507081547 64 240 1.0 7.0 0.00 0.00 0.00 61 1012.2
20260507080012 63 165 1.0 5.0 0.00 0.00 0.00 62 1012.1
20260507074510 63 250 1.0 5.0 0.00 0.00 0.00 63 1012.0